Aérodrome :
LOGIN :

S'inscrire | Disclaimer

   EN    FR    IT 

 










Légende :    VFR   VFR Marginal   IFR   IFR Intensif   IFR Très Intensif
Visi : 
Plafond : 
>= 8 km
>= 3000ft
5 à 8 km
1000 à 3000 ft
1500m à 5 km
500 à 1000 ft
800 à 1500m
200 à 500 ft
< 800m
< 200 ft
Symboles :   Orages  Brouillard  Fortes neiges  Fortes précipitations  Vent > 20 kt
SIGMETs :   Divers  Orages  Givrage  Turbulence  Onde Orograph.  Cendres Volcan.







- Altitude de l'aérodrome : 124 ft
- Code IATA : AVN
- Voir les cartes d'approche


LFMV - Avignon Caumont

DERNIER METAR :
  • 250600Z AUTO 35015KT CAVOK 20/10 Q1015 BECMG 35015G25KT

METARs EXPIRÉS :
  • 250530Z AUTO 36015KT CAVOK 19/10 Q1015 BECMG 35015G25KT
  • 250500Z AUTO 35015KT CAVOK 19/10 Q1015 BECMG 35015G25KT
  • 250430Z AUTO 35014KT CAVOK 18/10 Q1015 BECMG 35015G25KT
  • 250400Z AUTO 34010KT 320V020 CAVOK 18/10 Q1015 BECMG 35015G25KT
  • 250330Z AUTO 35010KT CAVOK 19/10 Q1015 BECMG 35015G25KT

TAF TAF LFMV
Valide du 25 à 03h jusqu'au 26 à 03h UTC


250200Z 2503/2603 35015G25KT CAVOK
BECMG 2522/2524 35005KT
ATIS : +33 4 90 84 32 84
Pas de NOTAMs connus pour ce terrain.



MET'MAP, la Météo Aéronautique d'un coup d'oeil ! - Copyright ORBIFLY Décembre 2007 - Disclaimer

ORBIFLY MET'MAP TEAM :

Programmation & Développement : Alexandra Zaïnal
Conception & Développement : Baudouin d'Aumeries
Co-Programmation & Développement : Marc-Olivier Méhu
Soutien technique & logistique : Manuel Goepfert

Contact : metmap@orbifly.com




SOURCES & CREDITS :

   NOAA